Miscellaneous Local Product
Issued by NWS North Platte, NE

Home | Current Version | Previous Version | Graphics & Text | Print | Product List | Glossary On
Versions: 1 2 3 4 5 6 7 8 9 10 11 12 13 14 15 16 17 18 19 20 21 22 23 24 25 26 27 28 29 30 31 32 33 34 35 36 37 38 39 40 41 42 43 44 45 46 47 48 49 50
000
AXUS43 KLBF 300810
MISLBF


WESTERN AND NORTH CENTRAL NEBRASKA HOURLY WEATHER ROUNDUP
NATIONAL WEATHER SERVICE NORTH PLATTE NE
300 AM CDT SAT JUL 30 2016

NOTE: "FAIR" INDICATES FEW OR NO CLOUDS BELOW 12,000 FEET WITH NO
SIGNIFICANT WEATHER AND/OR OBSTRUCTIONS TO VISIBILITY.

NOTE: STATIONS NOT REPORTING VARIABLES SUCH AS SKY/WEATHER OR
PRESSURE ARE PROVIDED BY RAWS AND APRS NETWORKS AND ARE NOT UNDER
NATIONAL WEATHER SERVICE QUALITY CONTROL.

...OBSERVATIONS IN AND NEAR THE EASTERN PANHANDLE OF NEBRASKA...

CITY           SKY/WX    TMP DP  RH WIND       PRES   REMARKS
PINE RIDGE     CLEAR     55  54  96 NE3       30.02S
CHADRON        CLEAR     58  56  93 CALM      30.02R
ALLIANCE       CLEAR     58  56  93 E7        30.04F
SIDNEY         PTCLDY    63  59  87 S7        30.08F
CRESCENT LAKE    N/A     61  56  83 CALM        N/A
$$

...OBSERVATIONS IN NORTHERN NEBRASKA AND FAR SOUTHERN SOUTH DAKOTA...

CITY           SKY/WX    TMP DP  RH WIND       PRES   REMARKS
WINNER         CLOUDY    68  58  70 S13       30.02R
VALENTINE      PTCLDY    66  60  81 SE5       30.03S
THEDFORD       MOCLDY    65  63  93 E3        30.05F
AINSWORTH      CLOUDY    66  60  82 SE5       30.04S THUNDER
O`NEILL        CLEAR     64  58  82 SE3       30.04F
ORD            PTCLDY    62  59  90 SE3       30.02F
BROKEN BOW     CLOUDY    63  62  97 CALM      30.04F
VALENTINE NWR    N/A     64  61  90 S6          N/A
BUTTE            N/A     60  57  89 SE5         N/A
HALSEY           N/A     65  62  90 SE6         N/A
EWING            N/A     60  58  94 CALM        N/A
$$

...OBSERVATIONS IN SOUTHWEST NEBRASKA AND FAR NORTHEAST COLORADO...

CITY           SKY/WX    TMP DP  RH WIND       PRES   REMARKS
WRAY           FAIR      66  61  82 S6        30.06S
HOLYOKE        FAIR      64  61  88 CALM      30.06S
IMPERIAL       CLEAR     64  60  87 SE7       30.05F
OGALLALA       CLEAR     66  63  88 S5        30.04F
NORTH PLATTE   PTCLDY    65  63  93 E8        30.04F
MCCOOK         CLEAR     67  63  87 SE7       30.03F
LEXINGTON      PTCLDY    67  63  87 SE5       30.05R
STAPLETON        N/A     64  62  95 CALM        N/A
GOTHENBURG       N/A     66  61  84 CALM        N/A
CALLAWAY         N/A     65  63  94 S8          N/A
$$

...OBSERVATIONS IN CENTRAL LINCOLN COUNTY AREA...

CITY           SKY/WX    TMP DP  RH WIND       PRES   REMARKS
N.P. AIRPORT   PTCLDY    65  63  93 E8        30.04F
N.P. DOWNTOWN    N/A     66  63  89 CALM        N/A
N.P. HILLCREST   N/A     64  62  93 SE5         N/A
$$

...SOME OBSERVATIONS FROM AROUND THE REGION...

CITY           SKY/WX    TMP DP  RH WIND       PRES   REMARKS
DENVER         MOCLDY    68  60  75 SE13      30.11F
LARAMIE        CLEAR     58  54  86 SE16      30.19F
CHEYENNE       CLOUDY    59  55  87 SW3       30.16F
SCOTTSBLUFF    PTCLDY    61  57  87 NE5       30.04F
RAPID CITY     CLEAR     57  54  89 CALM      29.98F
BISMARCK       CLOUDY    65  61  87 SE7       29.93F
PIERRE         MOCLDY    66  55  67 SE14      29.97R
SIOUX FALLS    CLEAR     58  55  90 CALM      30.05S
OMAHA          PTCLDY    66  61  84 CALM      30.02F
GRAND ISLAND   CLEAR     63  59  87 E5        30.05S
KANSAS CITY    CLEAR     65  60  84 NE5       30.01F
WICHITA        MOCLDY    73  69  87 S6        30.00F
OKLAHOMA CITY  CLOUDY    73  69  87 S3        29.98F
DALLAS         PTCLDY    83  72  69 S12       29.96F
AMARILLO       LGT RAIN  66  60  81 SW10      30.14R
DODGE CITY     MOCLDY    70  66  87 S9        30.05S
HAYS           CLOUDY    68  61  77 E6        30.01F
GOODLAND       PTCLDY    68  61  78 S13       30.03F
$$




USA.gov is the U.S. government's official web portal to all federal, state and local government web resources and services.